Time,TemperatureF,DewpointF,PressureIn,WindDirection,WindDirectionDegrees,WindSpeedMPH,WindSpeedGustMPH,Humidity,HourlyPrecipIn,Conditions,Clouds,dailyrainin,SoftwareType,DateUTC
2013-05-08 00:01:00,64.6,61.0,29.91,West,279,0.0,0.0,88,0.00,,SKC,0.00,VWS V13.01,2013-05-08 05:01:00,
2013-05-08 00:06:00,64.6,61.0,29.91,West,279,0.0,0.0,88,0.00,,SKC,0.00,VWS V13.01,2013-05-08 05:06:00,
2013-05-08 00:11:00,64.4,60.8,29.91,West,279,0.0,0.0,88,0.00,,SKC,0.00,VWS V13.01,2013-05-08 05:11:00,
2013-05-08 00:16:00,64.4,60.8,29.91,West,279,0.0,0.0,88,0.00,,SKC,0.00,VWS V13.01,2013-05-08 05:16:00,
2013-05-08 00:21:00,64.2,60.6,29.91,West,279,0.0,0.0,88,0.00,,SKC,0.00,VWS V13.01,2013-05-08 05:21:00,
2013-05-08 00:26:00,64.0,60.4,29.91,West,279,0.0,0.0,88,0.00,,SKC,0.00,VWS V13.01,2013-05-08 05:26:00,
2013-05-08 00:31:00,64.0,60.4,29.91,West,279,0.0,0.0,88,0.00,,SKC,0.00,VWS V13.01,2013-05-08 05:31:00,
2013-05-08 00:36:00,63.9,60.2,29.91,West,279,0.0,0.0,88,0.00,,SKC,0.00,VWS V13.01,2013-05-08 05:36:00,
2013-05-08 00:41:00,63.9,60.2,29.91,West,279,0.0,0.0,88,0.00,,SKC,0.00,VWS V13.01,2013-05-08 05:41:00,
2013-05-08 00:46:00,63.7,60.4,29.91,West,279,0.0,0.0,89,0.00,,SKC,0.00,VWS V13.01,2013-05-08 05:46:00,
2013-05-08 00:51:00,63.5,60.2,29.91,West,279,0.0,0.0,89,0.00,,SKC,0.00,VWS V13.01,2013-05-08 05:51:00,
2013-05-08 00:56:00,63.3,60.0,29.91,West,279,0.0,0.0,89,0.00,,SKC,0.00,VWS V13.01,2013-05-08 05:56:00,
2013-05-08 01:01:00,63.3,60.0,29.91,West,279,0.0,0.0,89,0.00,,SKC,0.00,VWS V13.01,2013-05-08 06:01:00,
2013-05-08 01:06:00,63.1,59.8,29.91,West,279,0.0,0.0,89,0.00,,SKC,0.00,VWS V13.01,2013-05-08 06:06:00,
2013-05-08 01:11:00,63.0,59.4,29.88,West,279,0.0,0.0,88,0.00,,SKC,0.00,VWS V13.01,2013-05-08 06:11:00,
2013-05-08 01:16:00,63.0,59.7,29.88,West,279,0.0,0.0,89,0.00,,SKC,0.00,VWS V13.01,2013-05-08 06:16:00,
2013-05-08 01:21:00,62.8,59.5,29.88,West,279,0.0,0.0,89,0.00,,SKC,0.00,VWS V13.01,2013-05-08 06:21:00,
2013-05-08 01:26:00,62.6,59.3,29.88,West,279,0.0,0.0,89,0.00,,SKC,0.00,VWS V13.01,2013-05-08 06:26:00,
2013-05-08 01:30:00,62.6,59.3,29.88,West,279,0.0,0.0,89,0.00,,SKC,0.00,VWS V13.01,2013-05-08 06:30:00,
2013-05-08 01:35:00,62.6,59.3,29.88,West,279,0.0,0.0,89,0.00,,SKC,0.00,VWS V13.01,2013-05-08 06:35:00,
2013-05-08 01:40:00,62.4,59.1,29.88,West,279,0.0,0.0,89,0.00,,SKC,0.00,VWS V13.01,2013-05-08 06:40:00,
2013-05-08 01:45:00,62.2,59.0,29.88,West,279,0.0,0.0,89,0.00,,SKC,0.00,VWS V13.01,2013-05-08 06:45:00,
2013-05-08 01:50:00,62.2,59.0,29.88,West,279,0.0,0.0,89,0.00,,SKC,0.00,VWS V13.01,2013-05-08 06:50:00,
2013-05-08 01:55:00,62.1,58.8,29.88,West,279,0.0,0.0,89,0.00,,SKC,0.00,VWS V13.01,2013-05-08 06:55:00,
2013-05-08 02:00:00,61.7,58.7,29.88,West,279,0.0,0.0,90,0.00,,SKC,0.00,VWS V13.01,2013-05-08 07:00:00,
2013-05-08 02:05:00,61.5,58.6,29.88,West,279,0.0,0.0,90,0.00,,SKC,0.00,VWS V13.01,2013-05-08 07:05:00,
2013-05-08 02:10:00,61.5,58.6,29.88,West,279,0.0,0.0,90,0.00,,SKC,0.00,VWS V13.01,2013-05-08 07:10:00,
2013-05-08 02:15:00,61.5,58.6,29.88,West,279,0.0,0.0,90,0.00,,SKC,0.00,VWS V13.01,2013-05-08 07:15:00,
2013-05-08 02:20:00,61.3,58.4,29.88,West,279,0.0,0.0,90,0.00,,SKC,0.00,VWS V13.01,2013-05-08 07:20:00,
2013-05-08 02:25:00,61.3,58.4,29.88,West,279,0.0,0.0,90,0.00,,SKC,0.00,VWS V13.01,2013-05-08 07:25:00,
2013-05-08 02:30:00,61.3,58.4,29.88,West,279,0.0,0.0,90,0.00,,SKC,0.00,VWS V13.01,2013-05-08 07:30:00,
2013-05-08 02:35:00,61.2,57.9,29.88,West,279,0.0,0.0,89,0.00,,SKC,0.00,VWS V13.01,2013-05-08 07:35:00,
2013-05-08 02:40:00,61.2,57.9,29.88,West,279,0.0,0.0,89,0.00,,SKC,0.00,VWS V13.01,2013-05-08 07:40:00,
2013-05-08 02:45:00,60.8,57.8,29.88,West,279,0.0,0.0,90,0.00,,SKC,0.00,VWS V13.01,2013-05-08 07:45:00,
2013-05-08 02:50:00,60.8,58.2,29.88,West,279,0.0,0.0,91,0.00,,SKC,0.00,VWS V13.01,2013-05-08 07:50:00,
2013-05-08 02:55:00,60.8,58.2,29.88,West,279,0.0,0.0,91,0.00,,SKC,0.00,VWS V13.01,2013-05-08 07:55:00,
2013-05-08 03:00:00,60.4,57.8,29.88,West,279,0.0,0.0,91,0.00,,SKC,0.00,VWS V13.01,2013-05-08 08:00:00,
2013-05-08 03:05:00,60.4,58.1,29.88,West,279,0.0,0.0,92,0.00,,SKC,0.00,VWS V13.01,2013-05-08 08:05:00,
2013-05-08 03:10:00,60.3,57.9,29.88,West,279,0.0,0.0,92,0.00,,SKC,0.00,VWS V13.01,2013-05-08 08:10:00,
2013-05-08 03:15:00,60.3,57.9,29.88,West,279,0.0,0.0,92,0.00,,SKC,0.00,VWS V13.01,2013-05-08 08:15:00,
2013-05-08 03:20:00,60.4,58.1,29.88,West,279,0.0,0.0,92,0.00,,SKC,0.00,VWS V13.01,2013-05-08 08:20:00,
2013-05-08 03:25:00,60.3,57.6,29.88,West,279,0.0,0.0,91,0.00,,SKC,0.00,VWS V13.01,2013-05-08 08:25:00,
2013-05-08 03:30:00,60.1,57.5,29.88,West,279,0.0,0.0,91,0.00,,SKC,0.00,VWS V13.01,2013-05-08 08:30:00,
2013-05-08 03:35:00,60.1,57.5,29.88,West,279,0.0,0.0,91,0.00,,SKC,0.00,VWS V13.01,2013-05-08 08:35:00,
2013-05-08 03:40:00,59.9,57.6,29.88,West,279,0.0,0.0,92,0.00,,SKC,0.00,VWS V13.01,2013-05-08 08:40:00,
2013-05-08 03:45:00,59.9,57.6,29.88,West,279,0.0,0.0,92,0.00,,SKC,0.00,VWS V13.01,2013-05-08 08:45:00,
2013-05-08 03:50:00,59.9,57.6,29.88,West,279,0.0,0.0,92,0.00,,SKC,0.00,VWS V13.01,2013-05-08 08:50:00,
2013-05-08 03:55:00,59.7,57.1,29.88,West,279,0.0,0.0,91,0.00,,SKC,0.00,VWS V13.01,2013-05-08 08:55:00,
2013-05-08 04:00:00,59.7,57.4,29.88,West,279,0.0,0.0,92,0.00,,SKC,0.00,VWS V13.01,2013-05-08 09:00:00,
2013-05-08 04:05:00,59.7,57.1,29.88,West,279,0.0,0.0,91,0.00,,SKC,0.00,VWS V13.01,2013-05-08 09:05:00,
2013-05-08 04:10:00,59.7,57.4,29.88,West,279,0.0,0.0,92,0.00,,SKC,0.00,VWS V13.01,2013-05-08 09:10:00,
2013-05-08 04:15:00,59.7,57.1,29.88,West,279,0.0,0.0,91,0.00,,SKC,0.00,VWS V13.01,2013-05-08 09:15:00,
2013-05-08 04:20:00,59.7,57.1,29.88,West,279,0.0,0.0,91,0.00,,SKC,0.00,VWS V13.01,2013-05-08 09:20:00,
2013-05-08 04:25:00,59.5,56.9,29.88,West,279,0.0,0.0,91,0.00,,SKC,0.00,VWS V13.01,2013-05-08 09:25:00,
2013-05-08 04:30:00,59.4,56.7,29.88,West,279,0.0,0.0,91,0.00,,SKC,0.00,VWS V13.01,2013-05-08 09:30:00,
2013-05-08 04:35:00,59.4,56.7,29.88,West,279,0.0,0.0,91,0.00,,SKC,0.00,VWS V13.01,2013-05-08 09:35:00,
2013-05-08 04:40:00,59.4,56.7,29.88,West,279,0.0,0.0,91,0.00,,SKC,0.00,VWS V13.01,2013-05-08 09:40:00,
2013-05-08 04:45:00,59.4,56.7,29.88,West,279,0.0,0.0,91,0.00,,SKC,0.00,VWS V13.01,2013-05-08 09:45:00,
2013-05-08 04:50:00,59.4,56.7,29.88,West,279,0.0,0.0,91,0.00,,SKC,0.00,VWS V13.01,2013-05-08 09:50:00,
2013-05-08 04:55:00,59.2,56.6,29.88,West,279,0.0,0.0,91,0.00,,SKC,0.00,VWS V13.01,2013-05-08 09:55:00,
2013-05-08 05:00:00,59.2,56.6,29.88,West,279,0.0,0.0,91,0.00,,SKC,0.00,VWS V13.01,2013-05-08 10:00:00,
2013-05-08 05:05:00,59.2,56.6,29.88,West,279,0.0,0.0,91,0.00,,SKC,0.00,VWS V13.01,2013-05-08 10:05:00,
2013-05-08 05:10:00,59.2,56.6,29.88,West,279,0.0,0.0,91,0.00,,SKC,0.00,VWS V13.01,2013-05-08 10:10:00,
2013-05-08 05:15:00,59.2,56.6,29.88,West,279,0.0,0.0,91,0.00,,SKC,0.00,VWS V13.01,2013-05-08 10:15:00,
2013-05-08 05:20:00,59.2,56.6,29.88,West,279,0.0,0.0,91,0.00,,SKC,0.00,VWS V13.01,2013-05-08 10:20:00,
2013-05-08 05:25:00,59.0,56.7,29.88,West,279,0.0,0.0,92,0.00,,SKC,0.00,VWS V13.01,2013-05-08 10:25:00,
2013-05-08 05:30:00,59.0,56.4,29.88,West,279,0.0,0.0,91,0.00,,SKC,0.00,VWS V13.01,2013-05-08 10:30:00,
2013-05-08 05:35:00,58.8,56.5,29.88,West,279,0.0,0.0,92,0.00,,SKC,0.00,VWS V13.01,2013-05-08 10:35:00,
2013-05-08 05:40:00,58.8,56.5,29.88,West,279,0.0,0.0,92,0.00,,SKC,0.00,VWS V13.01,2013-05-08 10:40:00,
2013-05-08 05:45:00,58.5,56.2,29.88,West,279,0.0,0.0,92,0.00,,SKC,0.00,VWS V13.01,2013-05-08 10:45:00,
2013-05-08 05:50:00,58.3,56.0,29.88,West,279,0.0,0.0,92,0.00,,SKC,0.00,VWS V13.01,2013-05-08 10:50:00,
2013-05-08 05:55:00,58.3,56.3,29.91,West,279,0.0,0.0,93,0.00,,SKC,0.00,VWS V13.01,2013-05-08 10:55:00,
2013-05-08 06:00:00,58.3,56.0,29.91,West,279,0.0,0.0,92,0.00,,SKC,0.00,VWS V13.01,2013-05-08 11:00:00,
2013-05-08 06:05:00,58.3,56.3,29.91,West,279,0.0,0.0,93,0.00,,SKC,0.00,VWS V13.01,2013-05-08 11:05:00,
2013-05-08 06:10:00,58.3,56.3,29.91,West,279,0.0,0.0,93,0.00,,SKC,0.00,VWS V13.01,2013-05-08 11:10:00,
2013-05-08 06:15:00,58.3,56.3,29.91,West,279,0.0,0.0,93,0.00,,SKC,0.00,VWS V13.01,2013-05-08 11:15:00,
2013-05-08 06:20:00,58.3,56.6,29.91,West,279,0.0,0.0,94,0.00,,SKC,0.00,VWS V13.01,2013-05-08 11:20:00,
2013-05-08 06:25:00,58.5,56.7,29.91,West,279,0.0,0.0,94,0.00,,SKC,0.00,VWS V13.01,2013-05-08 11:25:00,
2013-05-08 06:30:00,58.5,56.5,29.91,West,279,0.0,0.0,93,0.00,,SKC,0.00,VWS V13.01,2013-05-08 11:30:00,
2013-05-08 06:35:00,58.5,56.5,29.91,West,279,0.0,0.0,93,0.00,,SKC,0.00,VWS V13.01,2013-05-08 11:35:00,
2013-05-08 06:40:00,58.5,56.7,29.91,West,279,0.0,0.0,94,0.00,,SKC,0.00,VWS V13.01,2013-05-08 11:40:00,
2013-05-08 06:45:00,58.8,57.1,29.91,SE,132,0.0,0.0,94,0.00,,SKC,0.00,VWS V13.01,2013-05-08 11:45:00,
2013-05-08 06:50:00,59.2,57.5,29.91,SE,132,0.0,0.0,94,0.00,,SKC,0.00,VWS V13.01,2013-05-08 11:50:00,
2013-05-08 06:55:00,59.7,58.0,29.94,SE,132,0.0,0.0,94,0.00,,SKC,0.00,VWS V13.01,2013-05-08 11:55:00,
2013-05-08 07:00:00,60.1,58.0,29.94,SE,132,0.0,0.0,93,0.00,,SKC,0.00,VWS V13.01,2013-05-08 12:00:00,
2013-05-08 07:05:00,60.6,58.6,29.94,SE,132,0.0,0.0,93,0.00,,SKC,0.00,VWS V13.01,2013-05-08 12:05:00,
2013-05-08 07:10:00,61.2,58.8,29.94,SE,132,0.0,0.0,92,0.00,,SKC,0.00,VWS V13.01,2013-05-08 12:10:00,
2013-05-08 07:15:00,61.7,59.4,29.94,SE,132,0.0,0.0,92,0.00,,SKC,0.00,VWS V13.01,2013-05-08 12:15:00,
2013-05-08 07:20:00,62.1,59.7,29.94,NE,46,2.2,2.2,92,0.00,,SKC,0.00,VWS V13.01,2013-05-08 12:20:00,
2013-05-08 07:24:00,62.6,60.2,29.94,NE,34,0.0,0.0,92,0.00,,SKC,0.00,VWS V13.01,2013-05-08 12:24:00,
2013-05-08 07:29:00,63.3,61.0,29.94,NE,34,0.0,0.0,92,0.00,,SKC,0.00,VWS V13.01,2013-05-08 12:29:00,
2013-05-08 07:34:00,64.0,61.7,29.94,NE,34,0.0,0.0,92,0.00,,SKC,0.00,VWS V13.01,2013-05-08 12:34:00,
2013-05-08 07:39:00,64.8,62.1,29.94,NE,34,0.0,0.0,91,0.00,,SKC,0.00,VWS V13.01,2013-05-08 12:39:00,
2013-05-08 07:44:00,65.5,62.2,29.94,NE,34,0.0,0.0,89,0.00,,SKC,0.00,VWS V13.01,2013-05-08 12:44:00,
2013-05-08 07:49:00,66.0,61.4,29.94,NE,34,0.0,0.0,85,0.00,,SKC,0.00,VWS V13.01,2013-05-08 12:49:00,
2013-05-08 07:54:00,66.6,60.2,29.94,NE,40,0.0,2.2,80,0.00,,SKC,0.00,VWS V13.01,2013-05-08 12:54:00,
2013-05-08 07:59:00,67.1,60.7,29.94,NE,53,0.0,0.0,80,0.00,,SKC,0.00,VWS V13.01,2013-05-08 12:59:00,
2013-05-08 08:04:00,68.0,60.5,29.94,NE,41,0.0,0.0,77,0.00,,SKC,0.00,VWS V13.01,2013-05-08 13:04:00,
2013-05-08 08:09:00,68.7,61.2,29.94,NE,41,0.0,0.0,77,0.00,,SKC,0.00,VWS V13.01,2013-05-08 13:09:00,
2013-05-08 08:14:00,69.4,62.3,29.94,NE,36,0.0,0.0,78,0.00,,SKC,0.00,VWS V13.01,2013-05-08 13:14:00,
2013-05-08 08:19:00,70.2,62.2,29.94,NNE,20,3.1,3.6,76,0.00,,SKC,0.00,VWS V13.01,2013-05-08 13:19:00,
2013-05-08 08:24:00,70.5,59.9,29.94,NNE,33,0.0,0.0,69,0.00,,SKC,0.00,VWS V13.01,2013-05-08 13:24:00,
2013-05-08 08:29:00,71.4,60.7,29.94,ENE,60,0.0,0.0,69,0.00,,SKC,0.00,VWS V13.01,2013-05-08 13:29:00,
2013-05-08 08:34:00,72.0,60.4,29.94,NE,49,0.0,2.7,67,0.00,,SKC,0.00,VWS V13.01,2013-05-08 13:34:00,
2013-05-08 08:39:00,72.5,60.5,29.94,NNE,28,0.0,0.0,66,0.00,,SKC,0.00,VWS V13.01,2013-05-08 13:39:00,
2013-05-08 08:44:00,73.6,61.5,29.94,SE,133,2.2,2.7,66,0.00,,SKC,0.00,VWS V13.01,2013-05-08 13:44:00,
2013-05-08 08:49:00,74.5,62.4,29.94,ENE,60,0.0,0.0,66,0.00,,SKC,0.00,VWS V13.01,2013-05-08 13:49:00,
2013-05-08 08:54:00,75.4,62.8,29.94,ESE,116,2.7,2.7,65,0.00,,SKC,0.00,VWS V13.01,2013-05-08 13:54:00,
2013-05-08 08:59:00,76.1,63.0,29.94,East,92,3.1,3.1,64,0.00,,SKC,0.00,VWS V13.01,2013-05-08 13:59:00,
2013-05-08 09:04:00,76.6,63.6,29.94,East,88,2.2,2.2,64,0.00,,SKC,0.00,VWS V13.01,2013-05-08 14:04:00,
2013-05-08 09:09:00,77.4,64.2,29.94,ENE,57,3.6,3.6,64,0.00,,SKC,0.00,VWS V13.01,2013-05-08 14:09:00,
2013-05-08 09:14:00,77.9,63.8,29.94,NE,46,0.0,0.0,62,0.00,,SKC,0.00,VWS V13.01,2013-05-08 14:14:00,
2013-05-08 09:19:00,78.1,64.0,29.94,NE,41,0.0,0.0,62,0.00,,SKC,0.00,VWS V13.01,2013-05-08 14:19:00,
2013-05-08 09:24:00,78.4,64.3,29.94,ENE,67,0.0,0.0,62,0.00,,SKC,0.00,VWS V13.01,2013-05-08 14:24:00,
2013-05-08 09:29:00,79.0,64.4,29.94,ESE,111,2.7,2.7,61,0.00,,SKC,0.00,VWS V13.01,2013-05-08 14:29:00,
2013-05-08 09:34:00,80.1,65.4,29.94,ESE,110,0.0,0.0,61,0.00,,SKC,0.00,VWS V13.01,2013-05-08 14:34:00,
2013-05-08 09:39:00,81.0,66.3,29.97,East,89,0.0,0.0,61,0.00,,SKC,0.00,VWS V13.01,2013-05-08 14:39:00,
2013-05-08 09:44:00,81.5,66.8,29.97,SE,136,0.0,0.0,61,0.00,,SKC,0.00,VWS V13.01,2013-05-08 14:44:00,
2013-05-08 09:49:00,82.2,67.4,29.97,NNW,332,3.1,4.0,61,0.00,,SKC,0.00,VWS V13.01,2013-05-08 14:49:00,
2013-05-08 09:54:00,82.4,67.1,29.97,ENE,60,2.7,2.7,60,0.00,,SKC,0.00,VWS V13.01,2013-05-08 14:54:00,
2013-05-08 09:59:00,82.2,67.4,29.97,ENE,57,3.1,3.1,61,0.00,,SKC,0.00,VWS V13.01,2013-05-08 14:59:00,
2013-05-08 10:04:00,82.4,67.1,29.97,NNW,341,0.0,2.7,60,0.00,,SKC,0.00,VWS V13.01,2013-05-08 15:04:00,
2013-05-08 10:09:00,83.3,68.0,29.97,SW,224,2.2,2.2,60,0.00,,SKC,0.00,VWS V13.01,2013-05-08 15:09:00,
2013-05-08 10:14:00,84.0,68.7,29.97,NW,323,0.0,3.6,60,0.00,,SKC,0.00,VWS V13.01,2013-05-08 15:14:00,
2013-05-08 10:19:00,84.7,69.3,29.97,South,177,3.6,3.6,60,0.00,,SKC,0.00,VWS V13.01,2013-05-08 15:19:00,
2013-05-08 10:24:00,84.9,69.5,29.97,South,179,2.7,2.7,60,0.00,,SKC,0.00,VWS V13.01,2013-05-08 15:24:00,
2013-05-08 10:29:00,84.7,69.3,29.97,WSW,242,2.7,3.1,60,0.00,,SKC,0.00,VWS V13.01,2013-05-08 15:29:00,
2013-05-08 10:34:00,84.7,69.3,29.97,SSW,198,2.7,2.7,60,0.00,,SKC,0.00,VWS V13.01,2013-05-08 15:34:00,
2013-05-08 10:39:00,84.9,69.5,29.97,SW,229,6.3,6.3,60,0.00,,SKC,0.00,VWS V13.01,2013-05-08 15:39:00,
2013-05-08 10:44:00,84.9,69.5,29.97,South,176,5.8,8.1,60,0.00,,SKC,0.00,VWS V13.01,2013-05-08 15:44:00,
2013-05-08 10:49:00,85.1,69.7,29.97,South,184,5.4,5.8,60,0.00,,SKC,0.00,VWS V13.01,2013-05-08 15:49:00,
2013-05-08 10:54:00,85.6,70.2,29.97,SSW,198,5.4,5.4,60,0.00,,SKC,0.00,VWS V13.01,2013-05-08 15:54:00,
2013-05-08 10:59:00,86.2,70.7,29.97,SSW,202,3.6,5.8,60,0.00,,SKC,0.00,VWS V13.01,2013-05-08 15:59:00,
2013-05-08 11:04:00,85.8,70.3,29.97,South,169,0.0,5.4,60,0.00,,SKC,0.00,VWS V13.01,2013-05-08 16:04:00,
2013-05-08 11:09:00,86.0,70.5,29.97,SSE,160,3.1,3.6,60,0.00,,SKC,0.00,VWS V13.01,2013-05-08 16:09:00,
2013-05-08 11:14:00,86.4,70.8,29.97,SW,227,3.1,6.3,60,0.00,,SKC,0.00,VWS V13.01,2013-05-08 16:14:00,
2013-05-08 11:19:00,86.5,71.0,29.97,SSW,194,4.0,6.3,60,0.00,,SKC,0.00,VWS V13.01,2013-05-08 16:19:00,
2013-05-08 11:24:00,86.9,71.3,29.97,WSW,255,4.0,5.4,60,0.00,,SKC,0.00,VWS V13.01,2013-05-08 16:24:00,
2013-05-08 11:29:00,86.5,71.0,29.97,South,177,3.1,3.1,60,0.00,,SKC,0.00,VWS V13.01,2013-05-08 16:29:00,
2013-05-08 11:34:00,86.7,71.2,29.97,South,182,3.1,4.9,60,0.00,,SKC,0.00,VWS V13.01,2013-05-08 16:34:00,
2013-05-08 11:39:00,87.1,71.5,29.97,SW,230,5.4,5.4,60,0.00,,SKC,0.00,VWS V13.01,2013-05-08 16:39:00,
2013-05-08 11:44:00,86.9,71.3,29.97,SSW,210,6.3,8.3,60,0.00,,SKC,0.00,VWS V13.01,2013-05-08 16:44:00,
2013-05-08 11:49:00,86.7,71.2,29.97,SSW,198,2.7,6.3,60,0.00,,SKC,0.00,VWS V13.01,2013-05-08 16:49:00,
2013-05-08 11:54:00,86.0,70.5,29.97,South,177,3.1,4.0,60,0.00,,SKC,0.00,VWS V13.01,2013-05-08 16:54:00,
2013-05-08 11:59:00,85.8,70.3,29.97,West,266,4.0,4.0,60,0.00,,SKC,0.00,VWS V13.01,2013-05-08 16:59:00,
2013-05-08 12:04:00,87.1,71.5,29.97,SE,135,5.8,8.3,60,0.00,,SKC,0.00,VWS V13.01,2013-05-08 17:04:00,
2013-05-08 12:09:00,87.3,71.7,29.97,WSW,237,7.6,7.6,60,0.00,,SKC,0.00,VWS V13.01,2013-05-08 17:09:00,
2013-05-08 12:14:00,87.3,71.7,29.97,WSW,242,7.2,7.2,60,0.00,,SKC,0.00,VWS V13.01,2013-05-08 17:14:00,
2013-05-08 12:19:00,87.4,71.9,29.97,WSW,240,3.6,8.1,60,0.00,,SKC,0.00,VWS V13.01,2013-05-08 17:19:00,
2013-05-08 12:24:00,87.8,71.7,29.97,SSE,161,3.6,8.1,59,0.00,,SKC,0.00,VWS V13.01,2013-05-08 17:24:00,
2013-05-08 12:29:00,88.3,72.2,29.97,WSW,249,7.6,7.6,59,0.00,,SKC,0.00,VWS V13.01,2013-05-08 17:29:00,
2013-05-08 12:34:00,88.5,72.4,29.97,SSE,166,4.9,5.8,59,0.00,,SKC,0.00,VWS V13.01,2013-05-08 17:34:00,
2013-05-08 12:39:00,89.1,72.9,29.97,South,169,6.3,6.3,59,0.00,,SKC,0.00,VWS V13.01,2013-05-08 17:39:00,
2013-05-08 12:44:00,89.4,73.2,29.97,SSW,202,5.4,5.4,59,0.00,,SKC,0.00,VWS V13.01,2013-05-08 17:44:00,
2013-05-08 12:49:00,89.8,73.6,29.97,SSE,168,6.3,8.3,59,0.00,,SKC,0.00,VWS V13.01,2013-05-08 17:49:00,
2013-05-08 12:54:00,89.2,73.1,29.97,South,174,5.4,8.3,59,0.00,,SKC,0.00,VWS V13.01,2013-05-08 17:54:00,
2013-05-08 12:59:00,88.9,72.7,29.97,SSW,198,6.3,8.1,59,0.00,,SKC,0.00,VWS V13.01,2013-05-08 17:59:00,
2013-05-08 13:04:00,89.6,73.4,29.97,SSE,162,6.3,6.3,59,0.00,,SKC,0.00,VWS V13.01,2013-05-08 18:04:00,
2013-05-08 13:09:00,90.0,73.7,29.97,South,188,4.9,4.9,59,0.00,,SKC,0.00,VWS V13.01,2013-05-08 18:09:00,
2013-05-08 13:14:00,89.6,73.4,29.97,WSW,245,4.0,5.4,59,0.00,,SKC,0.00,VWS V13.01,2013-05-08 18:14:00,
2013-05-08 13:18:00,89.2,72.0,29.97,SSW,194,6.3,8.1,57,0.00,,SKC,0.00,VWS V13.01,2013-05-08 18:18:00,
2013-05-08 13:24:00,88.9,71.7,29.97,South,178,4.0,4.0,57,0.00,,SKC,0.00,VWS V13.01,2013-05-08 18:24:00,
2013-05-08 13:29:00,89.1,71.9,29.97,SSE,154,3.1,3.6,57,0.00,,SKC,0.00,VWS V13.01,2013-05-08 18:29:00,
2013-05-08 13:33:00,88.9,71.7,29.97,SSW,196,5.4,7.6,57,0.00,,SKC,0.00,VWS V13.01,2013-05-08 18:33:00,
2013-05-08 13:38:00,88.9,71.7,29.97,South,186,4.0,7.6,57,0.00,,SKC,0.00,VWS V13.01,2013-05-08 18:38:00,
2013-05-08 13:44:00,88.5,71.3,29.97,South,187,7.6,8.3,57,0.00,,SKC,0.00,VWS V13.01,2013-05-08 18:44:00,
2013-05-08 13:48:00,88.7,71.5,29.97,SW,234,4.0,5.8,57,0.00,,SKC,0.00,VWS V13.01,2013-05-08 18:48:00,
2013-05-08 13:53:00,88.7,71.5,29.97,South,171,6.3,6.3,57,0.00,,SKC,0.00,VWS V13.01,2013-05-08 18:53:00,
2013-05-08 13:58:00,88.3,71.2,29.97,SSE,159,10.5,10.5,57,0.00,,SKC,0.00,VWS V13.01,2013-05-08 18:58:00,
2013-05-08 14:03:00,88.2,71.0,29.97,West,259,4.9,4.9,57,0.00,,SKC,0.00,VWS V13.01,2013-05-08 19:03:00,
2013-05-08 14:08:00,88.3,71.2,29.97,South,179,6.3,6.3,57,0.00,,SKC,0.00,VWS V13.01,2013-05-08 19:08:00,
2013-05-08 14:13:00,88.3,71.2,29.97,South,174,4.0,4.0,57,0.00,,SKC,0.00,VWS V13.01,2013-05-08 19:13:00,
2013-05-08 14:18:00,88.2,71.0,29.97,SW,228,4.0,4.0,57,0.00,,SKC,0.00,VWS V13.01,2013-05-08 19:18:00,
2013-05-08 14:23:00,88.7,71.5,29.94,SSE,154,7.6,7.6,57,0.00,,SKC,0.00,VWS V13.01,2013-05-08 19:23:00,
2013-05-08 14:28:00,89.6,71.8,29.94,South,173,5.4,8.1,56,0.00,,SKC,0.00,VWS V13.01,2013-05-08 19:28:00,
2013-05-08 14:33:00,89.6,71.8,29.94,South,183,5.8,5.8,56,0.00,,SKC,0.00,VWS V13.01,2013-05-08 19:33:00,
2013-05-08 14:38:00,89.2,72.0,29.94,WSW,246,4.0,8.7,57,0.00,,SKC,0.00,VWS V13.01,2013-05-08 19:38:00,
2013-05-08 14:43:00,88.2,71.0,29.94,SSE,168,5.4,8.1,57,0.00,,SKC,0.00,VWS V13.01,2013-05-08 19:43:00,
2013-05-08 14:48:00,87.8,70.7,29.94,WSW,240,3.1,3.1,57,0.00,,SKC,0.00,VWS V13.01,2013-05-08 19:48:00,
2013-05-08 14:53:00,88.2,71.0,29.94,WSW,249,8.7,8.7,57,0.00,,SKC,0.00,VWS V13.01,2013-05-08 19:53:00,
2013-05-08 14:58:00,87.3,70.2,29.94,WSW,252,5.4,8.3,57,0.00,,SKC,0.00,VWS V13.01,2013-05-08 19:58:00,
2013-05-08 15:03:00,87.1,70.0,29.94,South,189,4.0,4.0,57,0.00,,SKC,0.00,VWS V13.01,2013-05-08 20:03:00,
2013-05-08 15:08:00,86.7,69.7,29.94,WSW,238,8.3,8.3,57,0.00,,SKC,0.00,VWS V13.01,2013-05-08 20:08:00,
2013-05-08 15:13:00,86.2,69.2,29.94,WSW,257,2.7,3.1,57,0.00,,SKC,0.00,VWS V13.01,2013-05-08 20:13:00,
2013-05-08 15:18:00,86.7,69.7,29.94,SW,222,3.1,3.6,57,0.00,,SKC,0.00,VWS V13.01,2013-05-08 20:18:00,
2013-05-08 15:23:00,86.9,69.8,29.94,WSW,241,8.1,9.6,57,0.00,,SKC,0.00,VWS V13.01,2013-05-08 20:23:00,
2013-05-08 15:28:00,87.1,70.0,29.94,SW,228,10.5,10.5,57,0.00,,SKC,0.00,VWS V13.01,2013-05-08 20:28:00,
2013-05-08 15:33:00,86.5,69.5,29.94,South,177,3.6,3.6,57,0.00,,SKC,0.00,VWS V13.01,2013-05-08 20:33:00,
2013-05-08 15:38:00,86.7,69.7,29.94,WSW,238,3.1,4.0,57,0.00,,SKC,0.00,VWS V13.01,2013-05-08 20:38:00,
2013-05-08 15:43:00,87.1,70.0,29.94,SSW,201,4.0,4.0,57,0.00,,SKC,0.00,VWS V13.01,2013-05-08 20:43:00,
2013-05-08 15:48:00,87.1,70.0,29.94,South,191,5.8,7.6,57,0.00,,SKC,0.00,VWS V13.01,2013-05-08 20:48:00,
2013-05-08 15:53:00,87.1,70.0,29.94,SW,217,8.3,8.3,57,0.00,,SKC,0.00,VWS V13.01,2013-05-08 20:53:00,
2013-05-08 15:58:00,87.1,70.0,29.94,WSW,241,3.6,3.6,57,0.00,,SKC,0.00,VWS V13.01,2013-05-08 20:58:00,
2013-05-08 16:03:00,87.1,70.0,29.94,WSW,245,6.3,6.3,57,0.00,,SKC,0.00,VWS V13.01,2013-05-08 21:03:00,
2013-05-08 16:08:00,86.9,69.8,29.91,SSW,212,3.6,8.1,57,0.00,,SKC,0.00,VWS V13.01,2013-05-08 21:08:00,
2013-05-08 16:13:00,86.7,69.7,29.91,WSW,240,3.1,3.6,57,0.00,,SKC,0.00,VWS V13.01,2013-05-08 21:13:00,
2013-05-08 16:18:00,86.7,69.7,29.91,SW,225,5.4,10.1,57,0.00,,SKC,0.00,VWS V13.01,2013-05-08 21:18:00,
2013-05-08 16:23:00,86.2,69.2,29.94,WSW,253,6.3,6.3,57,0.00,,SKC,0.00,VWS V13.01,2013-05-08 21:23:00,
2013-05-08 16:28:00,86.0,69.0,29.94,WSW,247,3.1,5.4,57,0.00,,SKC,0.00,VWS V13.01,2013-05-08 21:28:00,
2013-05-08 16:33:00,86.0,69.0,29.94,SSE,167,5.8,5.8,57,0.00,,SKC,0.00,VWS V13.01,2013-05-08 21:33:00,
2013-05-08 16:38:00,86.4,69.3,29.91,South,173,4.0,4.0,57,0.00,,SKC,0.00,VWS V13.01,2013-05-08 21:38:00,
2013-05-08 16:43:00,86.4,69.3,29.91,WSW,257,5.4,5.4,57,0.00,,SKC,0.00,VWS V13.01,2013-05-08 21:43:00,
2013-05-08 16:48:00,86.2,69.2,29.91,SW,220,8.1,8.3,57,0.00,,SKC,0.00,VWS V13.01,2013-05-08 21:48:00,
2013-05-08 16:53:00,85.8,68.8,29.91,WSW,240,3.6,6.3,57,0.00,,SKC,0.00,VWS V13.01,2013-05-08 21:53:00,
2013-05-08 16:58:00,85.3,68.3,29.91,West,269,7.6,7.6,57,0.00,,SKC,0.00,VWS V13.01,2013-05-08 21:58:00,
2013-05-08 17:03:00,84.9,68.0,29.91,SSE,157,2.7,2.7,57,0.00,,SKC,0.00,VWS V13.01,2013-05-08 22:03:00,
2013-05-08 17:08:00,84.6,67.7,29.91,NW,317,5.8,8.7,57,0.00,,SKC,0.00,VWS V13.01,2013-05-08 22:08:00,
2013-05-08 17:13:00,84.0,67.7,29.91,SSW,192,6.3,8.3,58,0.00,,SKC,0.00,VWS V13.01,2013-05-08 22:13:00,
2013-05-08 17:18:00,82.9,66.7,29.91,WSW,249,5.8,5.8,58,0.00,,SKC,0.00,VWS V13.01,2013-05-08 22:18:00,
2013-05-08 17:23:00,82.2,66.0,29.91,WSW,247,3.1,7.6,58,0.00,,SKC,0.00,VWS V13.01,2013-05-08 22:23:00,
2013-05-08 17:28:00,82.2,66.0,29.91,SSW,213,5.8,5.8,58,0.00,,SKC,0.00,VWS V13.01,2013-05-08 22:28:00,
2013-05-08 17:33:00,82.0,65.8,29.91,SSW,206,2.7,4.0,58,0.00,,SKC,0.00,VWS V13.01,2013-05-08 22:33:00,
2013-05-08 17:38:00,81.7,65.5,29.91,WSW,241,6.3,6.3,58,0.00,,SKC,0.00,VWS V13.01,2013-05-08 22:38:00,
2013-05-08 17:43:00,81.5,65.3,29.91,SW,235,5.4,8.7,58,0.00,,SKC,0.00,VWS V13.01,2013-05-08 22:43:00,
2013-05-08 17:48:00,81.0,64.8,29.91,SSW,211,4.0,4.0,58,0.00,,SKC,0.00,VWS V13.01,2013-05-08 22:48:00,
2013-05-08 17:53:00,80.8,64.6,29.91,SSE,165,8.3,12.8,58,0.00,,SKC,0.00,VWS V13.01,2013-05-08 22:53:00,
2013-05-08 17:58:00,80.2,64.6,29.91,SSE,168,2.7,5.4,59,0.00,,SKC,0.00,VWS V13.01,2013-05-08 22:58:00,
2013-05-08 18:03:00,79.9,64.3,29.91,WSW,239,3.6,6.3,59,0.00,,SKC,0.00,VWS V13.01,2013-05-08 23:03:00,
2013-05-08 18:08:00,79.9,64.3,29.91,WSW,242,5.4,8.3,59,0.00,,SKC,0.00,VWS V13.01,2013-05-08 23:08:00,
2013-05-08 18:13:00,79.9,64.3,29.91,SW,232,8.1,10.5,59,0.00,,SKC,0.00,VWS V13.01,2013-05-08 23:13:00,
2013-05-08 18:18:00,79.7,64.1,29.91,WSW,238,3.1,6.3,59,0.00,,SKC,0.00,VWS V13.01,2013-05-08 23:18:00,
2013-05-08 18:23:00,79.5,64.0,29.91,SSW,210,3.6,5.8,59,0.00,,SKC,0.00,VWS V13.01,2013-05-08 23:23:00,
2013-05-08 18:28:00,79.2,63.6,29.91,WSW,239,5.8,11.0,59,0.00,,SKC,0.00,VWS V13.01,2013-05-08 23:28:00,
2013-05-08 18:33:00,79.0,63.4,29.91,South,179,3.6,6.3,59,0.00,,SKC,0.00,VWS V13.01,2013-05-08 23:33:00,
2013-05-08 18:38:00,79.0,63.4,29.91,SSW,197,3.1,5.4,59,0.00,,SKC,0.00,VWS V13.01,2013-05-08 23:38:00,
2013-05-08 18:43:00,78.8,63.3,29.91,South,188,5.4,10.5,59,0.00,,SKC,0.00,VWS V13.01,2013-05-08 23:43:00,
2013-05-08 18:48:00,78.4,62.9,29.91,South,189,3.1,4.0,59,0.00,,SKC,0.00,VWS V13.01,2013-05-08 23:48:00,
2013-05-08 18:53:00,78.3,62.8,29.91,WSW,248,0.0,3.6,59,0.00,,SKC,0.00,VWS V13.01,2013-05-08 23:53:00,
2013-05-08 18:58:00,78.1,62.6,29.91,West,276,5.8,5.8,59,0.00,,SKC,0.00,VWS V13.01,2013-05-08 23:58:00,
2013-05-08 19:03:00,77.5,62.1,29.91,WSW,237,3.1,4.9,59,0.00,,SKC,0.00,VWS V13.01,2013-05-09 00:03:00,
2013-05-08 19:08:00,77.2,61.8,29.91,West,272,7.6,8.1,59,0.00,,SKC,0.00,VWS V13.01,2013-05-09 00:08:00,
2013-05-08 19:13:00,76.8,61.4,29.91,WSW,244,3.6,4.0,59,0.00,,SKC,0.00,VWS V13.01,2013-05-09 00:13:00,
2013-05-08 19:18:00,76.6,61.2,29.91,WSW,258,7.6,7.6,59,0.00,,SKC,0.00,VWS V13.01,2013-05-09 00:18:00,
2013-05-08 19:23:00,76.3,60.9,29.91,SW,223,5.4,5.8,59,0.00,,SKC,0.00,VWS V13.01,2013-05-09 00:23:00,
2013-05-08 19:28:00,76.1,60.8,29.91,SW,228,5.8,6.3,59,0.00,,SKC,0.00,VWS V13.01,2013-05-09 00:28:00,
2013-05-08 19:33:00,75.9,60.6,29.91,WSW,253,2.7,2.7,59,0.00,,SKC,0.00,VWS V13.01,2013-05-09 00:33:00,
2013-05-08 19:38:00,75.7,60.4,29.94,WSW,247,3.6,5.4,59,0.00,,SKC,0.00,VWS V13.01,2013-05-09 00:38:00,
2013-05-08 19:42:00,75.6,60.2,29.94,WSW,255,0.0,4.0,59,0.00,,SKC,0.00,VWS V13.01,2013-05-09 00:42:00,
2013-05-08 19:47:00,75.4,60.1,29.94,SSW,201,3.6,4.9,59,0.00,,SKC,0.00,VWS V13.01,2013-05-09 00:47:00,
2013-05-08 19:52:00,75.2,59.9,29.94,WSW,245,2.7,4.9,59,0.00,,SKC,0.00,VWS V13.01,2013-05-09 00:52:00,
2013-05-08 19:57:00,75.0,60.2,29.94,SSW,203,5.8,5.8,60,0.00,,SKC,0.00,VWS V13.01,2013-05-09 00:57:00,
2013-05-08 20:02:00,74.8,60.0,29.94,WSW,250,4.9,4.9,60,0.00,,SKC,0.00,VWS V13.01,2013-05-09 01:02:00,
2013-05-08 20:07:00,74.7,59.9,29.94,WSW,255,0.0,2.7,60,0.00,,SKC,0.00,VWS V13.01,2013-05-09 01:07:00,
2013-05-08 20:12:00,74.5,59.7,29.94,South,188,0.0,2.2,60,0.00,,SKC,0.00,VWS V13.01,2013-05-09 01:12:00,
2013-05-08 20:17:00,74.3,59.5,29.94,SW,232,5.8,7.2,60,0.00,,SKC,0.00,VWS V13.01,2013-05-09 01:17:00,
2013-05-08 20:22:00,74.3,59.5,29.94,WSW,239,3.6,3.6,60,0.00,,SKC,0.00,VWS V13.01,2013-05-09 01:22:00,
2013-05-08 20:27:00,74.1,59.4,29.94,West,261,3.6,5.8,60,0.00,,SKC,0.00,VWS V13.01,2013-05-09 01:27:00,
2013-05-08 20:32:00,73.9,59.2,29.94,WNW,296,5.4,5.4,60,0.00,,SKC,0.00,VWS V13.01,2013-05-09 01:32:00,
2013-05-08 20:37:00,73.8,59.0,29.94,South,173,0.0,3.6,60,0.00,,SKC,0.00,VWS V13.01,2013-05-09 01:37:00,
2013-05-08 20:42:00,73.6,59.8,29.94,SW,233,2.7,3.1,62,0.00,,SKC,0.00,VWS V13.01,2013-05-09 01:42:00,
2013-05-08 20:47:00,73.4,59.6,29.94,WSW,238,7.6,7.6,62,0.00,,SKC,0.00,VWS V13.01,2013-05-09 01:47:00,
2013-05-08 20:52:00,73.2,58.5,29.94,SW,234,6.3,6.3,60,0.00,,SKC,0.00,VWS V13.01,2013-05-09 01:52:00,
2013-05-08 20:57:00,73.2,58.5,29.94,WSW,251,4.9,6.3,60,0.00,,SKC,0.00,VWS V13.01,2013-05-09 01:57:00,
2013-05-08 21:02:00,73.0,58.3,29.94,WSW,240,2.2,2.2,60,0.00,,SKC,0.00,VWS V13.01,2013-05-09 02:02:00,
2013-05-08 21:07:00,72.9,58.2,29.94,WSW,239,2.7,5.8,60,0.00,,SKC,0.00,VWS V13.01,2013-05-09 02:07:00,
2013-05-08 21:12:00,72.9,58.2,29.94,WSW,240,2.7,2.7,60,0.00,,SKC,0.00,VWS V13.01,2013-05-09 02:12:00,
2013-05-08 21:17:00,72.7,58.0,29.94,SW,214,3.1,3.1,60,0.00,,SKC,0.00,VWS V13.01,2013-05-09 02:17:00,
2013-05-08 21:22:00,72.5,57.8,29.94,SW,222,4.0,4.0,60,0.00,,SKC,0.00,VWS V13.01,2013-05-09 02:22:00,
2013-05-08 21:27:00,72.3,59.0,29.94,WSW,245,2.7,3.6,63,0.00,,SKC,0.00,VWS V13.01,2013-05-09 02:27:00,
2013-05-08 21:32:00,72.3,59.0,29.94,SW,233,2.7,2.7,63,0.00,,SKC,0.00,VWS V13.01,2013-05-09 02:32:00,
2013-05-08 21:37:00,72.1,58.9,29.94,SW,220,3.1,5.8,63,0.00,,SKC,0.00,VWS V13.01,2013-05-09 02:37:00,
2013-05-08 21:42:00,72.1,58.9,29.94,West,276,4.9,4.9,63,0.00,,SKC,0.00,VWS V13.01,2013-05-09 02:42:00,
2013-05-08 21:47:00,72.1,59.7,29.94,SW,215,2.2,2.2,65,0.00,,SKC,0.00,VWS V13.01,2013-05-09 02:47:00,
2013-05-08 21:52:00,72.1,60.2,29.94,West,276,0.0,0.0,66,0.00,,SKC,0.00,VWS V13.01,2013-05-09 02:52:00,
2013-05-08 21:57:00,72.0,60.0,29.94,WSW,250,2.2,3.1,66,0.00,,SKC,0.00,VWS V13.01,2013-05-09 02:57:00,
2013-05-08 22:02:00,72.0,60.0,29.94,SSW,211,3.6,3.6,66,0.00,,SKC,0.00,VWS V13.01,2013-05-09 03:02:00,
2013-05-08 22:07:00,71.8,59.8,29.94,SSW,201,4.0,4.0,66,0.00,,SKC,0.00,VWS V13.01,2013-05-09 03:07:00,
2013-05-08 22:12:00,71.8,59.8,29.94,SW,228,0.0,0.0,66,0.00,,SKC,0.00,VWS V13.01,2013-05-09 03:12:00,
2013-05-08 22:17:00,71.8,59.8,29.94,West,263,2.7,5.4,66,0.00,,SKC,0.00,VWS V13.01,2013-05-09 03:17:00,
2013-05-08 22:22:00,71.6,59.7,29.97,WSW,241,2.7,2.7,66,0.00,,SKC,0.00,VWS V13.01,2013-05-09 03:22:00,
2013-05-08 22:27:00,71.6,59.7,29.97,SSW,202,4.0,5.8,66,0.00,,SKC,0.00,VWS V13.01,2013-05-09 03:27:00,
2013-05-08 22:32:00,71.6,59.7,29.97,West,267,6.3,7.6,66,0.00,,SKC,0.00,VWS V13.01,2013-05-09 03:32:00,
2013-05-08 22:37:00,71.4,59.9,29.97,WSW,243,2.7,4.0,67,0.00,,SKC,0.00,VWS V13.01,2013-05-09 03:37:00,
2013-05-08 22:42:00,71.4,59.9,29.97,South,172,2.2,2.2,67,0.00,,SKC,0.00,VWS V13.01,2013-05-09 03:42:00,
2013-05-08 22:47:00,71.4,60.3,29.97,SSW,193,4.0,4.9,68,0.00,,SKC,0.00,VWS V13.01,2013-05-09 03:47:00,
2013-05-08 22:52:00,71.2,60.6,29.97,SSW,203,3.1,3.1,69,0.00,,SKC,0.00,VWS V13.01,2013-05-09 03:52:00,
2013-05-08 22:57:00,71.2,61.0,29.97,NE,34,5.4,5.8,70,0.00,,SKC,0.00,VWS V13.01,2013-05-09 03:57:00,
2013-05-08 23:01:00,71.2,61.4,29.97,WSW,240,2.7,4.0,71,0.00,,SKC,0.00,VWS V13.01,2013-05-09 04:01:00,
2013-05-08 23:06:00,71.1,61.6,29.97,WSW,248,3.6,3.6,72,0.00,,SKC,0.00,VWS V13.01,2013-05-09 04:06:00,
2013-05-08 23:11:00,71.1,62.7,29.97,SSW,207,4.9,4.9,75,0.00,,SKC,0.00,VWS V13.01,2013-05-09 04:11:00,
2013-05-08 23:16:00,71.1,63.1,29.97,WSW,252,5.8,8.1,76,0.00,,SKC,0.00,VWS V13.01,2013-05-09 04:16:00,
2013-05-08 23:21:00,71.1,63.5,29.97,SW,226,5.8,5.8,77,0.00,,SKC,0.00,VWS V13.01,2013-05-09 04:21:00,
2013-05-08 23:26:00,70.9,63.3,29.97,WSW,246,2.2,4.0,77,0.00,,SKC,0.00,VWS V13.01,2013-05-09 04:26:00,
2013-05-08 23:31:00,70.9,63.3,29.97,SW,226,0.0,5.8,77,0.00,,SKC,0.00,VWS V13.01,2013-05-09 04:31:00,
2013-05-08 23:36:00,70.7,63.5,29.97,WSW,247,7.6,7.6,78,0.00,,SKC,0.00,VWS V13.01,2013-05-09 04:36:00,
2013-05-08 23:41:00,70.7,63.5,29.97,WSW,245,2.2,3.6,78,0.00,,SKC,0.00,VWS V13.01,2013-05-09 04:41:00,
2013-05-08 23:46:00,70.7,63.9,29.97,West,261,3.6,5.8,79,0.00,,SKC,0.00,VWS V13.01,2013-05-09 04:46:00,
2013-05-08 23:51:00,70.5,63.7,29.97,WSW,240,6.3,6.3,79,0.00,,SKC,0.00,VWS V13.01,2013-05-09 04:51:00,
2013-05-08 23:56:00,70.5,63.7,29.97,WSW,250,4.0,4.0,79,0.00,,SKC,0.00,VWS V13.01,2013-05-09 04:56:00,